Location: Asheville, NC
(35.6000°N, 82.5500°W)
Time: 09:07:18
(UTC-05:00)

N. Korean satellite - Pass Details

Date: 07 January 2018
Orbit: 458 x 515 km, 97.2° (Epoch: 20 January)

Event Time Altitude Azimuth Distance (km) Brightness Sun altitude
Rises 19:22:19 0° 202° (SSW) 2,607 10.8 -21.7°
Reaches altitude 10° 19:24:59 10° 223° (SW) 1,720 10.1 -22.2°
Maximum altitude 19:27:28 17° 265° (W) 1,335 9.7 -22.7°
Drops below altitude 10° 19:29:56 10° 308° (NW) 1,713 9.8 -23.2°
Sets 19:32:36 0° 329° (NNW) 2,592 10.5 -23.7°
